Grizzly Air Cargo 5120


PASI
Sitka Rocky Gutierrez Airport
Sitka, Alaska, US
PAJN
Juneau International Airport
Juneau, Alaska, US

Activity Log

Date Flight Route Aircraft Duration
06/21/2020 GRZ5120 HAWRD5 TNAKY B722 0h 40m
07/29/2019 GRZ514 HAWRD5 TNAKY B722 0h 28m
07/01/2019 GRZ514 HAWRD5 TNAKY B722 0h 35m
03/21/2019 GRZ514 HAWRD5 TNAKY B722 0h 40m

Route Details

Aircraft Information
Primary: Boeing 727-200F
Backup: Boeing 737-800BCF
Route Data
Distance: 97nm
Sched. Duration: 0h 35m
Avg. Duration: 0h 36m (+1m)
Times Flown: 4
Recm'd Route: HAWRD5 TNAKY
Planned Altitude: 16,000ft
Origin Wx: PASI 160732Z 11011KT 10SM -RA FEW017 BKN035 OVC048 05/03 A3004 RMK AO2 P0002 T00500028
Dest. Wx: PAJN 160653Z 10011KT 10SM -RA SCT037 OVC046 05/03 A3005 RMK AO2 SLP174 PCPN VRY LGT P0000 T00500028
Notes:

Financial History
Total Freight: 161,316lbs
Average Load: 40,329lbs/flt
Fuel Used: 18,836lbs
Avg. Fuel Used: 4,709lbs/flt
Fuel Expense: $21,285
Avg. Fuel Expense: $5,321
Avg. Fuel Cost: $1.13/lbs
Total Gross Income: $235,679
Pilot Pay: $756
Total Expenses: $25,661
Total Revenue: $188,291
Average Revenue: $58,919.67